Temp
93 93 92 91 91 90 90 90 91 92 92 91 91 91 90 90 90 86 84 79 79 78 79 80 81 79 77 76 80 81 80 75 75 79 81 81 76 78 77 79 79 78 81
94 92 92 92 92 91 90 91 92 90 91 91 90 89 89 89 89 84 80 75 73 78 81 81 80 81 78 78 82 79 81 80 74 72 76 77 77 76 77 73 78 81 74
95 94 92 91 90 89 90 90 91 91 91 91 90 88 88 86 87 84 73 71 72 79 83 82 81 79 79 77 81 81 81 79 77 76 74 79 79 79 74 75 72 69 76
97 94 91 91 91 91 90 90 90 91 90 90 90 89 88 87 87 84 73 75 80 84 82 82 81 81 79 79 81 78 75 74 75 76 75 76 77 74 74 69 67 72 70
95 94 92 92 93 92 92 91 91 91 90 90 90 90 86 85 86 85 80 76 82 82 78 78 76 71 67 68 78 72 70 72 73 72 72 73 71 69 67 67 67 68 67
96 94 94 93 93 92 92 92 91 90 90 89 88 88 84 83 72 70 75 79 83 78 75 77 76 72 67 65 66 65 66 66 66 67 70 67 66 67 66 65 66 61 58
94 94 94 92 91 91 91 90 90 89 89 86 85 87 83 81 65 67 69 82 77 75 79 79 81 81 77 78 68 67 66 65 65 66 65 66 65 65 63 62 64 63 62
93 94 93 92 91 90 89 88 88 89 88 85 84 84 83 77 64 64 67 81 77 80 79 79 77 73 68 73 74 74 74 74 72 73 70 69 69 66 65 66 66 64 65
93 92 93 92 90 89 87 87 87 86 84 83 84 81 76 72 61 62 69 82 77 76 77 78 75 70 61 61 72 71 71 72 67 65 63 62 61 61 63 69 64 60 57
94 93 93 91 90 88 87 86 84 83 82 83 78 76 68 75 60 61 74 79 76 77 74 70 60 65 59 59 70 70 68 69 72 73 75 67 66 64 64 67 66 60 55
95 94 91 90 89 88 86 83 81 80 76 75 72 77 76 76 72 60 64 84 81 79 77 75 69 56 56 57 58 68 66 63 67 71 77 76 75 74 71 69 67 64 57
93 90 89 88 91 87 80 79 78 76 73 72 73 77 78 77 64 58 60 68 72 79 78 76 65 54 53 56 64 58 56 56 74 77 75 74 73 72 73 69 66 65 63
88 87 87 89 84 81 77 75 74 74 72 72 78 76 74 75 76 56 57 60 61 78 78 64 55 52 52 59 59 59 57 77 76 75 73 73 74 74 74 68 67 65 62
86 86 86 82 77 77 79 78 75 74 74 74 80 78 79 78 76 77 75 73 64 68 62 66 64 64 58 64 65 70 76 75 75 74 74 75 76 74 73 74 72 72 66
84 81 79 78 77 73 70 76 79 75 74 80 84 83 80 77 77 70 72 77 77 70 71 71 72 75 75 75 74 74 75 75 74 75 75 74 74 74 72 73 72 70 68
79 81 82 78 74 74 73 65 51 51 49 51 61 77 83 61 52 50 49 51 54 55 74 76 76 76 75 75 74 74 74 72 74 75 75 74 73 72 72 72 71 69 66
86 86 85 81 79 76 78 76 71 62 49 47 50 55 57 52 48 48 49 50 51 55 77 77 76 75 75 75 76 75 72 73 74 75 74 75 75 74 73 72 70 69 67
87 69 86 84 81 79 79 82 83 80 77 74 51 56 46 46 46 47 49 54 70 65 79 77 75 75 75 75 75 75 74 74 74 74 74 75 75 73 72 72 71 69 68
87 90 90 89 86 81 85 86 86 84 81 74 69 59 51 44 45 47 49 79 79 80 79 77 76 76 75 74 73 72 72 72 73 74 74 75 75 75 72 71 69 61 65
92 75 84 91 88 88 89 89 87 84 79 76 75 72 70 66 70 71 74 77 81 81 80 78 76 76 75 73 73 72 72 71 73 75 74 75 75 76 74 74 74 72 70
92 89 78 90 91 92 91 90 88 85 82 80 79 74 61 76 76 76 78 80 81 80 79 78 78 76 74 73 73 75 75 75 75 75 75 75 75 74 75 74 74 74 73
91 89 89 92 94 92 92 91 89 87 86 84 82 72 54 80 81 80 81 81 81 80 80 78 78 77 77 76 74 76 76 75 75 75 75 76 76 76 76 75 74 74 73
92 91 92 93 93 81 90 90 88 87 87 85 83 76 75 81 82 82 82 82 80 79 79 78 78 78 77 76 77 76 77 75 76 77 76 76 76 75 75 74 74 72 71
93 92 94 94 92 91 90 89 89 77 86 86 83 79 79 82 84 83 83 81 79 79 78 78 78 78 75 76 76 78 77 76 76 77 77 77 74 72 75 74 73 71 70
94 93 94 92 90 90 89 90 89 89 88 86 84 81 82 84 84 84 83 80 79 78 77 78 78 76 74 75 76 74 48 39 65 48 77 76 75 74 74 73 73 72 71
95 94 94 93 90 89 89 89 88 88 88 86 85 83 83 84 84 83 81 79 79 78 77 78 77 75 74 76 73 47 39 39 55 40 66 75 74 75 74 72 72 72 72
MSLP
1007.13 1007.54 1008.19 1008.86 1009.55 1010.09 1010.26 1010.34 1010.40 1010.53 1010.77 1010.94 1011.27 1011.49 1011.52 1011.50 1011.44 1011.99 1012.25 1012.62 1014.45 1014.52 1014.50 1013.95 1013.94 1014.05 1014.44 1014.41 1014.23 1013.68 1013.43 1013.60 1013.47 1013.02 1012.94 1012.66 1012.90 1012.54 1012.53 1012.31 1012.05 1011.38 1010.68
1005.94 1006.61 1007.20 1007.93 1008.47 1008.92 1009.27 1009.49 1009.78 1009.99 1010.16 1010.43 1010.81 1011.10 1011.10 1010.74 1010.57 1012.01 1013.02 1013.96 1014.35 1014.50 1013.37 1013.24 1013.54 1013.66 1014.11 1014.15 1013.58 1013.36 1013.50 1013.77 1013.91 1013.39 1013.16 1013.17 1012.71 1012.66 1012.38 1012.25 1011.61 1011.07 1011.02
1005.00 1005.88 1006.48 1007.04 1007.73 1008.19 1008.46 1008.71 1008.89 1009.23 1009.62 1009.94 1010.20 1010.34 1010.29 1010.16 1010.14 1011.86 1012.70 1012.12 1014.08 1014.32 1012.91 1012.79 1013.23 1013.78 1013.94 1014.11 1013.94 1013.77 1013.64 1013.97 1014.13 1013.72 1013.34 1012.92 1012.84 1012.60 1012.65 1012.15 1011.85 1011.71 1010.94
1004.12 1005.01 1005.73 1006.31 1006.82 1007.25 1007.66 1007.99 1008.33 1008.70 1008.96 1009.16 1009.44 1009.66 1009.82 1010.00 1010.14 1011.23 1012.46 1012.64 1013.08 1012.84 1012.67 1013.08 1013.50 1013.69 1014.02 1013.93 1013.87 1014.32 1014.90 1014.82 1014.34 1014.06 1013.68 1013.31 1013.13 1013.37 1013.20 1012.74 1012.15 1011.52 1011.25
1003.32 1004.18 1004.74 1005.41 1006.00 1006.49 1006.85 1007.34 1007.74 1008.04 1008.32 1008.69 1009.04 1009.23 1009.71 1009.99 1010.43 1010.91 1012.00 1012.95 1012.24 1012.54 1013.31 1013.72 1014.32 1014.73 1014.70 1015.21 1014.98 1015.58 1015.61 1015.34 1015.17 1014.94 1014.54 1014.32 1014.22 1014.31 1013.98 1013.80 1012.78 1011.91 1011.09
1002.59 1003.32 1004.16 1004.91 1005.38 1005.82 1006.24 1006.68 1007.12 1007.54 1008.01 1008.39 1008.72 1008.84 1009.33 1009.93 1010.48 1011.04 1011.77 1012.02 1012.25 1013.20 1013.80 1014.17 1014.67 1015.14 1015.77 1016.08 1016.24 1016.09 1016.31 1016.47 1016.38 1016.16 1015.48 1015.51 1015.49 1015.31 1015.03 1014.48 1013.20 1012.44 1011.61
1002.18 1002.95 1003.72 1004.34 1004.90 1005.40 1005.88 1006.29 1006.71 1007.19 1007.53 1008.09 1008.55 1008.92 1009.41 1010.11 1010.72 1011.44 1012.12 1012.44 1012.95 1013.44 1013.66 1014.19 1014.24 1015.38 1015.66 1015.75 1016.02 1016.24 1016.43 1016.59 1016.82 1017.03 1016.58 1016.30 1016.28 1016.35 1015.98 1014.76 1013.72 1013.07 1012.40
1001.91 1002.52 1003.21 1003.88 1004.49 1005.06 1005.59 1006.01 1006.41 1006.96 1007.42 1008.04 1008.56 1009.06 1009.55 1010.72 1011.32 1012.00 1012.55 1012.69 1013.20 1013.51 1013.94 1014.50 1015.23 1016.16 1016.60 1016.24 1016.35 1016.38 1016.42 1016.57 1016.78 1016.80 1016.86 1016.88 1016.77 1016.90 1016.36 1015.18 1014.54 1013.89 1012.70
1001.36 1002.10 1002.76 1003.50 1004.19 1004.85 1005.46 1005.95 1006.36 1006.88 1007.56 1008.11 1008.53 1009.19 1010.25 1011.47 1012.03 1012.43 1012.82 1012.85 1013.60 1014.23 1014.78 1015.34 1016.00 1016.64 1016.98 1017.10 1016.87 1016.82 1016.76 1016.68 1016.90 1016.93 1016.82 1016.91 1017.02 1017.23 1016.81 1015.63 1014.84 1014.02 1013.42
1000.78 1001.68 1002.50 1003.28 1003.90 1004.60 1005.33 1005.92 1006.50 1007.23 1007.99 1008.34 1009.19 1010.14 1011.00 1011.80 1012.29 1012.52 1012.62 1013.46 1014.09 1014.69 1015.71 1016.41 1016.74 1017.28 1017.65 1017.80 1017.57 1017.35 1017.08 1017.12 1016.75 1016.32 1016.11 1016.54 1016.66 1017.07 1016.74 1016.36 1015.90 1015.09 1014.77
1000.51 1001.41 1002.39 1003.28 1003.84 1004.43 1005.37 1006.28 1007.08 1007.81 1008.47 1009.00 1009.93 1010.55 1011.44 1012.15 1012.87 1013.05 1012.88 1013.08 1013.95 1014.67 1015.44 1016.26 1017.54 1017.96 1018.20 1018.34 1018.25 1017.90 1017.70 1017.62 1016.92 1016.48 1015.71 1015.73 1015.82 1015.94 1016.46 1016.60 1016.56 1016.17 1016.12
1000.48 1001.55 1002.66 1003.43 1003.87 1004.78 1005.79 1006.84 1007.75 1008.44 1008.96 1009.59 1010.28 1010.93 1011.80 1012.65 1013.36 1013.52 1013.43 1013.67 1014.38 1014.77 1015.33 1016.56 1018.12 1018.47 1018.64 1018.50 1018.23 1018.14 1017.80 1017.41 1016.39 1015.69 1015.74 1015.81 1015.86 1015.96 1015.80 1016.61 1016.96 1016.72 1016.84
1000.92 1001.94 1002.88 1003.53 1004.57 1005.50 1006.46 1007.47 1008.30 1008.99 1009.38 1009.98 1010.27 1011.08 1012.15 1013.20 1013.72 1014.19 1014.42 1014.68 1015.00 1015.21 1016.04 1017.31 1018.22 1018.67 1018.71 1018.46 1018.22 1017.80 1017.44 1016.55 1016.12 1015.78 1015.92 1016.06 1016.10 1016.14 1015.51 1016.51 1016.82 1016.70 1017.12
1001.12 1002.01 1003.01 1004.06 1005.34 1006.38 1007.20 1008.10 1008.66 1009.20 1009.70 1010.16 1010.16 1011.04 1011.85 1012.97 1014.00 1014.70 1015.29 1015.63 1015.96 1016.59 1017.30 1018.06 1018.40 1018.36 1018.37 1018.10 1018.14 1017.56 1017.34 1017.10 1016.66 1016.29 1016.08 1016.19 1016.22 1016.20 1016.12 1016.03 1016.14 1016.10 1016.42
1001.61 1002.61 1003.60 1004.89 1005.88 1006.82 1007.94 1008.33 1008.81 1009.48 1009.69 1009.68 1009.87 1010.53 1011.63 1012.73 1013.72 1014.44 1015.05 1015.52 1016.00 1016.68 1017.15 1017.79 1017.70 1017.28 1017.28 1017.32 1017.54 1017.55 1017.41 1017.04 1016.71 1016.59 1016.37 1016.37 1016.38 1016.41 1016.51 1016.60 1016.52 1016.55 1016.52
1002.07 1003.05 1003.96 1005.20 1006.51 1007.23 1008.10 1009.45 1010.16 1010.31 1010.04 1009.64 1010.00 1010.53 1011.63 1012.61 1013.93 1014.80 1015.38 1015.72 1016.28 1016.74 1016.46 1016.34 1016.56 1016.80 1016.90 1017.09 1017.11 1017.28 1017.40 1017.45 1017.16 1016.92 1016.74 1016.66 1016.70 1016.72 1016.75 1016.93 1017.11 1017.21 1017.22
1001.52 1002.48 1003.68 1004.70 1005.94 1006.82 1007.57 1008.41 1009.68 1011.05 1010.76 1011.14 1011.31 1011.80 1012.74 1013.73 1014.62 1015.34 1015.86 1016.26 1016.66 1016.82 1016.22 1016.14 1016.42 1016.67 1016.92 1017.06 1017.14 1017.28 1017.65 1017.87 1017.60 1017.28 1017.06 1016.94 1016.88 1016.87 1016.99 1017.16 1017.44 1017.67 1017.90
1001.57 1002.56 1003.27 1004.28 1005.32 1006.18 1006.83 1007.47 1008.42 1009.39 1010.59 1012.19 1012.99 1013.22 1013.70 1014.42 1015.24 1015.79 1016.29 1016.74 1016.89 1016.60 1015.88 1016.12 1016.48 1016.73 1017.04 1017.23 1017.30 1017.47 1017.59 1017.75 1017.65 1017.47 1017.44 1017.30 1017.37 1017.46 1017.54 1017.51 1017.76 1018.00 1018.27
1001.54 1002.01 1002.71 1003.47 1004.54 1005.44 1005.93 1006.66 1007.52 1008.60 1009.86 1011.78 1013.35 1014.39 1014.81 1015.18 1015.71 1016.12 1016.16 1015.32 1015.20 1015.28 1015.62 1016.12 1016.56 1016.86 1017.20 1017.64 1018.01 1018.20 1018.21 1018.22 1017.96 1017.72 1017.79 1017.66 1017.61 1017.54 1017.84 1018.22 1018.54 1018.52 1018.57
1000.88 1001.22 1001.87 1002.59 1003.81 1004.54 1005.00 1005.72 1006.74 1008.01 1009.59 1010.97 1012.06 1013.40 1014.64 1015.33 1015.82 1016.02 1015.76 1015.24 1014.70 1014.97 1015.51 1016.08 1016.72 1017.07 1017.48 1017.96 1018.21 1018.43 1018.68 1018.49 1018.12 1017.99 1018.05 1018.05 1017.97 1017.84 1017.98 1018.12 1018.24 1018.47 1018.72
1000.90 1001.70 1002.04 1002.86 1003.22 1003.63 1004.22 1005.04 1006.20 1007.32 1008.74 1009.76 1010.83 1012.32 1013.42 1013.58 1014.20 1014.52 1014.46 1014.34 1014.54 1014.98 1015.56 1016.00 1016.56 1017.13 1017.70 1018.07 1018.17 1018.15 1018.13 1018.26 1018.14 1018.10 1018.20 1018.44 1018.34 1018.36 1018.44 1018.54 1018.60 1018.72 1018.92
1001.10 1001.66 1002.04 1002.22 1002.55 1003.28 1003.91 1004.82 1005.80 1006.80 1007.76 1008.74 1010.09 1012.11 1013.09 1012.63 1013.04 1013.47 1013.56 1014.08 1014.50 1015.10 1015.57 1016.18 1016.42 1017.04 1017.19 1017.63 1017.98 1017.85 1018.02 1018.22 1018.36 1018.20 1018.35 1018.56 1018.68 1018.66 1018.70 1018.80 1018.82 1018.96 1019.16
1001.07 1001.44 1001.46 1001.78 1002.44 1003.24 1004.04 1004.82 1005.70 1006.50 1007.28 1008.39 1009.64 1011.60 1012.43 1011.94 1012.15 1012.61 1013.09 1013.78 1014.52 1015.15 1015.79 1016.24 1016.49 1016.70 1017.20 1017.72 1017.87 1017.94 1017.81 1018.28 1018.50 1018.46 1018.40 1018.52 1018.77 1018.86 1018.94 1019.07 1019.24 1019.60 1020.05
1000.76 1000.91 1001.00 1001.57 1002.36 1003.22 1003.78 1004.48 1005.27 1006.21 1007.16 1007.96 1009.20 1010.73 1011.32 1011.21 1011.31 1012.20 1012.79 1013.62 1014.57 1015.06 1015.68 1016.05 1016.36 1016.76 1017.47 1017.74 1018.00 1017.98 1018.22 1018.77 1018.91 1018.89 1018.68 1018.61 1019.14 1019.19 1019.18 1019.42 1019.86 1020.28 1020.60
1000.47 1000.72 1000.83 1001.53 1002.30 1002.85 1003.53 1004.20 1004.80 1005.76 1006.60 1007.58 1008.79 1009.97 1010.43 1010.48 1010.92 1011.79 1012.67 1013.65 1014.39 1014.95 1015.50 1015.88 1016.21 1016.90 1017.45 1017.69 1017.88 1018.25 1019.39 1019.78 1019.30 1019.61 1018.82 1019.08 1019.24 1019.50 1019.71 1019.98 1020.19 1020.46 1020.72
1000.34 1000.67 1000.87 1001.44 1002.34 1002.76 1003.26 1003.99 1004.62 1005.48 1006.25 1007.15 1008.19 1009.14 1009.61 1009.90 1010.54 1011.40 1012.36 1013.38 1014.08 1014.67 1015.26 1015.74 1016.14 1016.80 1017.27 1017.58 1018.04 1019.61 1020.00 1020.44 1020.27 1020.29 1019.75 1019.36 1019.65 1019.78 1020.02 1020.29 1020.46 1020.72 1020.85
Wind_Speed
18 18 17 15 15 14 13 14 14 13 10 10 11 10 11 12 12 11 13 8 3 7 8 9 11 8 4 3 3 5 4 4 9 11 10 11 12 9 10 9 12 12 10
17 16 15 15 15 15 14 14 13 13 13 12 11 11 12 14 13 10 9 6 6 9 10 9 9 5 5 2 6 5 5 5 6 11 9 10 9 10 8 13 10 11 9
16 16 15 15 13 13 14 14 14 13 13 14 13 13 13 13 13 10 11 13 10 10 8 6 6 3 2 2 5 6 8 8 9 9 10 9 9 9 12 11 11 12 10
16 16 15 15 15 15 14 13 13 12 13 13 13 13 12 11 10 11 10 12 10 5 3 5 2 2 1 3 4 6 8 8 8 9 9 9 9 12 10 11 12 9 12
15 15 16 14 14 14 13 14 13 13 13 13 12 12 9 8 7 10 11 9 5 1 3 1 11 13 18 14 7 7 7 8 8 9 9 10 11 12 12 11 11 12 11
15 16 13 12 12 12 12 12 11 11 11 10 9 10 8 5 8 12 6 4 5 5 5 10 10 12 13 9 9 12 9 7 8 7 8 10 11 12 11 12 12 12 11
13 13 12 12 11 11 11 11 11 10 9 7 8 9 6 5 15 12 6 5 8 5 8 7 6 6 3 5 7 7 5 5 1 5 9 9 10 11 12 14 14 13 12
13 12 12 12 12 11 10 10 9 9 9 8 7 7 7 8 12 12 9 10 8 8 5 9 9 9 9 10 7 6 6 4 4 5 5 7 7 8 11 12 13 13 9
14 13 12 12 11 12 12 10 9 8 8 8 8 8 10 9 9 10 9 10 9 9 9 8 10 10 11 12 5 5 4 5 4 7 8 7 7 6 8 12 13 13 13
13 13 11 11 11 12 11 10 7 10 10 8 11 11 12 13 7 8 7 10 9 9 9 11 17 11 10 10 6 5 4 4 4 6 2 10 9 11 10 10 13 13 11
12 12 12 11 11 11 11 10 10 10 11 11 11 12 12 13 7 4 3 9 9 7 8 7 8 9 8 7 7 4 3 6 10 8 4 6 6 6 6 7 12 14 11
13 13 13 13 11 11 12 11 12 12 12 13 12 12 11 10 7 9 12 12 6 7 6 9 8 6 3 3 3 6 10 8 7 4 5 6 7 7 5 6 8 13 11
15 14 14 13 13 11 11 12 10 11 11 11 12 11 10 8 8 12 13 12 12 5 9 12 11 6 5 5 3 9 11 4 4 5 6 6 7 5 5 9 7 10 13
16 16 14 13 13 11 11 11 10 10 10 9 10 11 11 10 9 8 9 10 13 12 14 9 6 3 1 3 5 4 4 5 5 6 6 6 6 7 7 7 8 7 4
16 12 13 11 11 9 8 7 10 7 8 9 11 12 12 12 11 11 10 9 8 9 9 7 8 6 4 3 3 3 5 4 5 5 6 7 7 7 8 8 8 8 8
16 13 13 11 10 10 11 10 19 10 9 13 8 11 9 15 17 14 12 14 16 13 8 5 4 3 3 3 3 3 4 4 5 5 5 6 7 7 8 8 8 9 9
16 16 13 13 13 12 13 13 12 12 22 20 15 18 14 17 18 16 15 14 11 7 5 4 4 4 4 3 3 4 5 4 2 5 5 5 5 6 7 8 8 9 9
16 14 14 13 13 12 11 13 12 13 12 10 14 11 17 17 16 15 14 11 6 6 3 5 4 4 4 3 3 3 4 4 4 4 4 5 7 7 7 8 8 9 9
16 14 15 15 14 14 12 13 13 13 12 12 11 9 10 12 13 11 12 7 7 6 5 5 4 5 5 4 4 4 5 5 5 4 4 4 4 5 7 9 8 6 9
13 14 13 12 14 14 13 13 13 13 13 12 12 12 11 12 11 11 8 7 5 5 5 6 5 5 5 4 4 4 5 5 4 4 4 4 4 5 6 7 7 8 8
11 12 13 13 13 13 13 13 12 13 12 13 13 14 17 13 12 11 9 7 6 6 5 6 6 7 6 5 4 3 4 4 4 5 4 4 4 5 5 6 6 7 7
11 13 13 13 12 13 12 12 12 12 13 13 13 13 16 11 11 11 9 8 6 6 6 5 6 6 6 6 5 4 4 4 4 4 5 4 4 4 5 5 5 6 6
11 14 13 12 12 12 12 12 11 11 11 11 13 13 14 11 11 11 10 9 8 7 7 6 6 6 6 5 5 4 5 5 4 4 4 5 4 4 4 5 5 6 6
13 13 13 13 12 13 12 12 11 13 13 12 13 13 14 11 11 12 10 10 9 8 8 7 7 9 8 6 5 4 5 4 5 2 2 4 6 2 5 6 7 7 7
11 12 12 12 12 12 11 11 11 12 11 12 12 13 14 12 11 12 10 10 10 9 9 9 8 10 10 9 8 9 8 9 5 4 3 6 5 5 6 6 6 6 7
11 11 11 11 11 11 11 11 12 12 12 12 12 13 14 12 12 12 12 12 10 10 10 8 10 13 13 10 9 11 8 4 1 5 5 7 6 5 5 6 8 6 5
Wind_Direction
204 208 210 208 211 211 218 222 228 232 240 223 230 242 229 234 226 205 206 197 244 248 239 262 273 284 293 277 237 266 290 5 329 320 319 351 337 329 329 317 316 302 315
200 211 206 207 208 209 213 220 220 223 222 225 227 232 236 236 231 201 185 93 245 272 259 278 277 287 297 257 255 39 326 309 323 321 344 327 328 330 336 333 316 333 341
198 201 213 209 207 213 213 217 220 221 222 226 220 226 229 235 237 182 144 176 204 244 265 290 272 320 303 59 0 340 354 351 329 331 313 333 332 357 346 323 349 335 318
194 200 205 208 206 209 215 217 218 221 223 222 223 223 226 239 241 189 157 185 226 274 329 290 243 131 211 34 319 10 32 337 345 332 332 336 348 6 333 347 329 321 332
195 199 206 205 210 213 215 218 222 221 221 225 225 227 216 230 206 220 165 215 252 173 239 239 79 76 66 51 14 25 11 1 350 349 340 348 351 343 348 338 321 330 327
193 204 201 201 209 211 212 216 216 218 219 217 223 230 191 192 173 125 176 192 151 171 145 112 105 94 79 85 92 73 63 29 11 353 351 348 1 348 344 332 320 331 336
197 198 198 194 201 201 205 205 208 208 202 190 203 226 172 159 135 135 155 160 150 166 125 143 148 100 91 76 87 89 119 123 215 330 333 355 343 354 333 325 339 344 337
197 199 191 190 196 192 189 193 191 195 187 184 191 200 150 118 126 145 166 151 130 126 120 83 93 79 43 36 25 10 3 4 35 358 356 350 5 352 349 339 351 351 353
197 197 190 185 186 178 182 180 176 171 156 166 177 121 115 125 131 156 168 127 104 96 89 90 93 80 39 26 358 8 354 20 150 224 243 269 275 290 318 6 4 359 357
190 185 179 174 173 168 164 164 138 135 152 141 102 110 117 134 146 155 170 117 133 113 110 83 61 74 47 20 356 7 7 20 352 320 59 229 229 128 48 34 23 16 4
177 161 156 162 154 150 141 127 128 134 125 115 114 127 127 139 121 28 320 135 130 147 123 116 89 70 54 14 333 26 13 324 302 258 34 31 46 73 67 30 38 33 32
145 145 152 151 154 131 129 127 134 131 121 120 125 123 124 120 90 62 62 87 123 126 136 100 108 111 95 347 299 332 292 277 260 33 33 37 42 13 77 95 80 75 63
140 143 147 144 124 131 129 132 131 131 128 128 137 131 128 130 104 76 69 74 39 124 102 101 124 156 196 152 261 277 281 11 15 42 42 40 44 45 21 142 137 113 82
142 139 137 123 129 132 135 137 133 135 133 142 142 141 144 142 143 137 123 108 98 96 110 129 143 173 298 46 233 243 64 32 3 30 45 42 55 46 39 41 45 37 70
133 127 122 126 130 115 73 125 146 118 142 167 150 152 153 155 157 151 151 151 143 139 139 148 184 189 148 121 86 60 24 35 42 39 43 47 42 58 53 43 49 51 41
134 135 142 130 132 132 123 92 45 66 64 62 75 149 136 119 113 106 103 110 119 156 192 168 136 128 99 96 105 101 74 40 34 48 49 57 60 45 63 63 60 54 53
149 142 144 145 145 143 142 133 119 70 66 53 64 92 104 121 114 118 121 126 145 161 224 131 129 127 117 109 94 84 74 48 21 48 53 48 64 77 64 67 68 65 63
142 139 151 145 147 146 149 147 145 144 135 109 46 95 110 114 121 125 129 137 161 205 206 132 128 133 117 105 99 94 94 95 69 65 53 57 63 59 50 65 74 70 64
149 160 151 151 150 152 158 152 153 149 141 123 122 96 91 93 121 140 171 181 181 153 133 130 132 132 119 108 84 59 33 39 32 79 66 57 76 87 107 106 91 74 72
163 135 146 146 142 161 159 156 149 149 139 150 147 143 144 141 157 171 197 225 159 151 141 137 139 134 117 122 140 146 154 196 146 100 82 72 57 73 77 70 71 75 74
144 141 139 146 173 158 160 156 154 151 154 162 158 159 165 168 169 175 194 173 174 152 157 145 157 136 142 157 170 171 152 129 122 120 112 93 96 100 93 84 76 68 74
147 156 165 171 159 161 158 153 157 158 164 166 154 150 180 195 174 181 186 169 157 154 146 168 138 169 161 159 164 176 149 129 126 119 117 125 117 102 102 107 104 86 75
162 167 175 168 162 149 154 156 161 170 161 166 151 159 185 207 178 181 175 167 151 156 147 169 171 149 130 156 178 178 160 134 127 136 143 128 128 119 110 106 92 77 79
174 181 175 162 165 167 170 166 169 167 170 171 151 167 184 200 176 178 170 154 162 158 165 164 171 159 150 169 162 186 126 115 145 121 142 125 109 172 102 99 96 95 94
171 189 177 169 161 179 162 175 170 173 174 162 161 174 187 194 177 170 170 156 171 165 168 169 161 151 167 174 175 106 75 38 46 11 182 155 131 130 119 125 129 112 106
179 194 181 174 166 192 170 182 175 178 177 171 169 179 190 180 179 170 165 169 173 170 168 172 160 167 163 173 129 107 98 64 245 18 320 133 165 155 136 129 136 136 126